• In Hungary
  • List of Countries
  • For 7 days
  • Water Temperature
  • Satellite Maps
  • Weather Map
  • News
  • Weather Widgets
  • user-avatar
    Login

    Hourly Weather Mchowie

    Today, 17 January, Wednesday

    Time Temperature Precipitation Wind Pressure Humidity
    00:00 -2°C° 0.5 mm 7 mps 723 mmHg 83%
    01:00 -2°C° 0 mm 7 mps 723 mmHg 81%
    02:00 -2°C° 0 mm 7 mps 723 mmHg 82%
    03:00 -3°C° 0 mm 6 mps 723 mmHg 83%
    04:00 -2°C° 0 mm 5 mps 722 mmHg 84%
    05:00 -2°C° 0 mm 5 mps 723 mmHg 85%
    06:00 -4°C° 0 mm 5 mps 723 mmHg 86%
    07:00 -4°C° 0 mm 5 mps 723 mmHg 87%
    08:00 -2°C° 0 mm 5 mps 723 mmHg 85%
    09:00 -2°C° 0 mm 5 mps 724 mmHg 82%
    10:00 -1°C° 0 mm 5 mps 724 mmHg 80%
    11:00 -1°C° 0 mm 4 mps 724 mmHg 78%
    12:00 0°C° 0 mm 4 mps 724 mmHg 75%
    13:00 0°C° 0 mm 4 mps 724 mmHg 73%
    14:00 0°C° 0 mm 3 mps 724 mmHg 76%
    15:00 0°C° 0 mm 3 mps 725 mmHg 80%
    16:00 -1°C° 0 mm 2 mps 725 mmHg 84%
    17:00 -1°C° 0.3 mm 2 mps 725 mmHg 85%
    18:00 -1°C° 0.3 mm 2 mps 726 mmHg 87%
    19:00 -1°C° 0.3 mm 2 mps 726 mmHg 89%
    20:00 -1°C° 0.7 mm 3 mps 727 mmHg 90%
    21:00 -2°C° 0.7 mm 4 mps 727 mmHg 92%
    22:00 -2°C° 0.7 mm 4 mps 728 mmHg 93%
    23:00 -2°C° 0.2 mm 4 mps 728 mmHg 92%

    Tomorrow, 18 January, Thursday

    Time Temperature Precipitation Wind Pressure Humidity
    00:00 -2°C° 0.2 mm 5 mps 729 mmHg 90%
    01:00 -2°C° 0.2 mm 5 mps 729 mmHg 89%
    02:00 -2°C° 0.1 mm 5 mps 730 mmHg 89%
    03:00 -4°C° 0.1 mm 5 mps 730 mmHg 88%
    04:00 -4°C° 0.1 mm 5 mps 731 mmHg 88%
    05:00 -4°C° 0.1 mm 5 mps 731 mmHg 88%
    06:00 -4°C° 0.1 mm 5 mps 732 mmHg 88%
    07:00 -2°C° 0.1 mm 4 mps 732 mmHg 89%
    08:00 -2°C° 0 mm 4 mps 732 mmHg 88%
    09:00 -2°C° 0 mm 5 mps 733 mmHg 87%
    10:00 -1°C° 0 mm 5 mps 733 mmHg 85%
    11:00 -1°C° 0 mm 5 mps 733 mmHg 84%
    12:00 -1°C° 0 mm 4 mps 732 mmHg 82%
    13:00 -1°C° 0 mm 4 mps 732 mmHg 80%
    14:00 -1°C° 0 mm 5 mps 731 mmHg 79%
    15:00 -1°C° 0 mm 5 mps 730 mmHg 78%
    16:00 -2°C° 0 mm 6 mps 729 mmHg 78%
    17:00 -2°C° 0.9 mm 7 mps 727 mmHg 78%
    18:00 -2°C° 0.9 mm 8 mps 726 mmHg 78%
    19:00 -1°C° 0.9 mm 9 mps 725 mmHg 78%
    20:00 -1°C° 0.5 mm 9 mps 724 mmHg 78%
    21:00 0°C° 0.5 mm 9 mps 724 mmHg 79%
    22:00 0°C° 0.5 mm 9 mps 723 mmHg 79%
    23:00 0°C° 0.2 mm 9 mps 723 mmHg 77%

    Day after tomorrow, 19 January, Friday

    Time Temperature Precipitation Wind Pressure Humidity
    00:00 -1°C° 0.2 mm 9 mps 723 mmHg 75%
    01:00 -2°C° 0.2 mm 10 mps 723 mmHg 73%
    02:00 -2°C° 0.1 mm 10 mps 723 mmHg 74%
    03:00 -3°C° 0.1 mm 10 mps 723 mmHg 75%
    04:00 -3°C° 0.1 mm 10 mps 723 mmHg 76%
    05:00 -3°C° 0.2 mm 10 mps 724 mmHg 77%
    06:00 -3°C° 0.2 mm 10 mps 725 mmHg 79%
    07:00 -3°C° 0.2 mm 10 mps 726 mmHg 80%
    08:00 -3°C° 0.2 mm 10 mps 727 mmHg 81%
    09:00 -3°C° 0.2 mm 9 mps 728 mmHg 81%
    10:00 -3°C° 0.2 mm 9 mps 730 mmHg 81%
    11:00 -2°C° 0.1 mm 8 mps 730 mmHg 81%
    12:00 -2°C° 0.1 mm 8 mps 731 mmHg 81%
    13:00 -2°C° 0.1 mm 8 mps 732 mmHg 81%
    14:00 -2°C° 0 mm 7 mps 732 mmHg 81%
    15:00 -3°C° 0 mm 6 mps 733 mmHg 82%
    16:00 -2°C° 0 mm 5 mps 733 mmHg 83%
    17:00 -2°C° 0 mm 4 mps 733 mmHg 85%
    18:00 -2°C° 0 mm 4 mps 734 mmHg 86%
    19:00 -1°C° 0 mm 3 mps 734 mmHg 88%
    20:00 -1°C° 0 mm 3 mps 734 mmHg 89%
    21:00 -1°C° 0 mm 3 mps 735 mmHg 90%
    22:00 -1°C° 0 mm 3 mps 735 mmHg 91%
    23:00 -1°C° 0.1 mm 3 mps 735 mmHg 92%

    20 January, Saturday

    Time Temperature Precipitation Wind Pressure Humidity
    00:00 -1°C° 0.1 mm 3 mps 735 mmHg 92%
    01:00 -1°C° 0.1 mm 3 mps 735 mmHg 93%
    02:00 -2°C° 0 mm 3 mps 735 mmHg 94%
    03:00 -2°C° 0 mm 3 mps 735 mmHg 94%
    04:00 -2°C° 0 mm 3 mps 735 mmHg 94%
    05:00 -2°C° 0 mm 2 mps 735 mmHg 95%
    06:00 -3°C° 0 mm 2 mps 735 mmHg 95%
    07:00 -3°C° 0 mm 2 mps 735 mmHg 95%
    08:00 -3°C° 0 mm 2 mps 735 mmHg 93%
    09:00 -2°C° 0 mm 2 mps 735 mmHg 91%
    10:00 -1°C° 0 mm 3 mps 735 mmHg 89%
    11:00 -1°C° 0 mm 3 mps 735 mmHg 87%
    12:00 -1°C° 0 mm 2 mps 734 mmHg 86%
    13:00 +1°C° 0 mm 2 mps 734 mmHg 85%
    14:00 -1°C° 0 mm 2 mps 734 mmHg 86%
    15:00 +1°C° 0 mm 1 mps 734 mmHg 87%
    16:00 0°C° 0 mm 1 mps 733 mmHg 89%
    17:00 0°C° 0.2 mm 1 mps 734 mmHg 90%
    18:00 0°C° 0.2 mm 1 mps 734 mmHg 91%
    19:00 -1°C° 0.2 mm 1 mps 734 mmHg 93%
    20:00 -1°C° 0.2 mm 1 mps 734 mmHg 93%
    21:00 -3°C° 0.2 mm 2 mps 734 mmHg 94%
    22:00 -3°C° 0.2 mm 2 mps 735 mmHg 95%
    23:00 -3°C° 0.1 mm 2 mps 735 mmHg 95%

    21 January, Sunday

    Time Temperature Precipitation Wind Pressure Humidity
    00:00 -3°C° 0.1 mm 2 mps 735 mmHg 95%
    01:00 -3°C° 0.1 mm 2 mps 735 mmHg 95%
    02:00 -3°C° 0 mm 2 mps 736 mmHg 94%
    03:00 -3°C° 0 mm 2 mps 736 mmHg 94%
    04:00 -4°C° 0 mm 2 mps 737 mmHg 94%
    05:00 -4°C° 0 mm 2 mps 737 mmHg 94%
    06:00 -3°C° 0 mm 2 mps 738 mmHg 94%
    07:00 -3°C° 0 mm 2 mps 739 mmHg 94%
    08:00 -3°C° 0.1 mm 2 mps 739 mmHg 93%
    09:00 -2°C° 0.1 mm 3 mps 740 mmHg 92%
    10:00 -2°C° 0.1 mm 3 mps 740 mmHg 91%
    11:00 -2°C° 0.1 mm 3 mps 741 mmHg 89%
    12:00 -1°C° 0.1 mm 3 mps 741 mmHg 87%
    13:00 -1°C° 0.1 mm 3 mps 741 mmHg 85%
    14:00 -1°C° 0.1 mm 3 mps 742 mmHg 86%
    15:00 -2°C° 0.1 mm 3 mps 742 mmHg 87%
    16:00 -2°C° 0.1 mm 2 mps 743 mmHg 88%
    17:00 -3°C° 0 mm 2 mps 743 mmHg 89%
    18:00 -3°C° 0 mm 2 mps 743 mmHg 91%
    19:00 -4°C° 0 mm 2 mps 744 mmHg 93%
    20:00 -4°C° 0 mm 2 mps 744 mmHg 93%
    21:00 -4°C° 0 mm 2 mps 744 mmHg 93%
    22:00 -4°C° 0 mm 2 mps 744 mmHg 94%
    23:00 -4°C° 0 mm 2 mps 744 mmHg 94%

    22 January, Monday

    Time Temperature Precipitation Wind Pressure Humidity
    00:00 -5°C° 0 mm 2 mps 744 mmHg 94%
    01:00 -5°C° 0 mm 2 mps 744 mmHg 95%
    02:00 -5°C° 0 mm 2 mps 744 mmHg 95%
    03:00 -5°C° 0 mm 2 mps 744 mmHg 95%
    04:00 -5°C° 0 mm 2 mps 744 mmHg 95%
    05:00 -5°C° 0 mm 2 mps 744 mmHg 94%
    06:00 -5°C° 0 mm 2 mps 744 mmHg 93%
    07:00 -6°C° 0 mm 2 mps 743 mmHg 92%
    08:00 -5°C° 0 mm 2 mps 743 mmHg 89%
    09:00 -4°C° 0 mm 2 mps 743 mmHg 86%
    10:00 -5°C° 0 mm 3 mps 743 mmHg 83%
    11:00 -4°C° 0 mm 3 mps 743 mmHg 81%
    12:00 -2°C° 0 mm 3 mps 743 mmHg 79%
    13:00 -2°C° 0 mm 3 mps 743 mmHg 77%
    14:00 -2°C° 0 mm 3 mps 743 mmHg 80%
    15:00 -3°C° 0 mm 2 mps 743 mmHg 82%
    16:00 -3°C° 0 mm 2 mps 743 mmHg 84%
    17:00 -3°C° 0 mm 2 mps 743 mmHg 84%
    18:00 -4°C° 0 mm 2 mps 743 mmHg 84%
    19:00 -5°C° 0 mm 3 mps 743 mmHg 83%
    20:00 -5°C° 0 mm 3 mps 743 mmHg 83%
    21:00 -5°C° 0 mm 3 mps 743 mmHg 83%
    22:00 -5°C° 0 mm 3 mps 743 mmHg 83%
    23:00 -4°C° 0 mm 3 mps 743 mmHg 84%
    Show more